This is the latest recevied weather packets stored in our database for station/object CA3SQH-10. If no packets are shown the sender has not sent any weather packets the latest 10 day(s).
| Time | Temp. | Humidity | Pressure | Rain* | Wind** | Luminosity | Snow |
|---|---|---|---|---|---|---|---|
| 1777491373 | 25° C | 40% | 935.3 hPa | - | - | - | - |
| 1777490473 | 25.56° C | 40% | 935.5 hPa | - | - | - | - |
| 1777489573 | 25.56° C | 39% | 935.7 hPa | - | - | - | - |
| 1777488673 | 25.56° C | 40% | 935.8 hPa | - | - | - | - |
| 1777487772 | 25.56° C | 40% | 935.8 hPa | - | - | - | - |
| 1777486872 | 26.11° C | 39% | 936.1 hPa | - | - | - | - |
| 1777485972 | 25.56° C | 39% | 936.3 hPa | - | - | - | - |
| 1777485072 | 25.56° C | 40% | 936.4 hPa | - | - | - | - |
| 1777484180 | 25.56° C | 40% | 936.5 hPa | - | - | - | - |
| 1777483280 | 25° C | 41% | 936.8 hPa | - | - | - | - |
| 1777482380 | 23.89° C | 43% | 937 hPa | - | - | - | - |
| 1777481479 | 24.44° C | 44% | 937.1 hPa | - | - | - | - |
| 1777480576 | 23.89° C | 46% | 937.3 hPa | - | - | - | - |
| 1777479676 | 23.33° C | 47% | 937.6 hPa | - | - | - | - |
| 1777478776 | 22.78° C | 48% | 937.8 hPa | - | - | - | - |
| 1777477875 | 22.22° C | 50% | 938 hPa | - | - | - | - |
| 1777476975 | 22.22° C | 50% | 937.9 hPa | - | - | - | - |
| 1777476075 | 21.67° C | 51% | 938.1 hPa | - | - | - | - |
| 1777475175 | 21.67° C | 52% | 938.1 hPa | - | - | - | - |
| 1777474275 | 21.11° C | 52% | 938.1 hPa | - | - | - | - |
| 1777473374 | 20.56° C | 53% | 938.2 hPa | - | - | - | - |
| 1777472474 | 20° C | 54% | 938.3 hPa | - | - | - | - |
| 1777471574 | 19.44° C | 55% | 938.5 hPa | - | - | - | - |
| 1777470674 | 18.89° C | 56% | 938.5 hPa | - | - | - | - |
| 1777469773 | 18.33° C | 60% | 938.6 hPa | - | - | - | - |
* Rain since midnight (hover to see other rain measurements)
** Current wind speed in m/s (hover to see current wind gust speed)